Flag Weather past 2 weeks in Steyr, Upper Austria, Austria

Now
40 °F

Quite cool.


Feels Like: 36 °F
Forecast: 36 / 52 °F
Wind: 6 mph from East

Location: Kremsmuenster

Current Time: Nov 23, 2014 at 2:43:37 PM

Latest Report: Nov 23, 2014 at 2:00 PM


Visibility: N/A

Pressure: 30.31 "Hg

Humidity: 94%

Dew point: 38 °F

Location of SteyrLocation

Historic Weather in Steyr — Graph

°F

Steyr temperature yesterday

Maximum temperature yesterday: 43 °F (at 2:00 PM)
Minimum temperature yesterday: 36 °F (at 9:00 PM)
Average temperature yesterday: 39 °F

Past Weeks' High & Low Weather Summary

 TemperatureHumidityPressure
High63 °F (Nov 12, 3:00 PM)100% (Nov 9, 9:00 PM)30.34 "Hg (Nov 9, 9:00 PM)
Low36 °F (Nov 22, 9:00 PM)62% (Nov 16, 1:00 PM)29.47 "Hg (Nov 16, 2:00 AM)
Average45 °F91%29.93 "Hg
* Reported Nov 8 1:00 PM — Nov 23 1:00 PM, Steyr, Weather by CustomWeather, © 2014

Note: Actual official high and low records may vary slightly from our data, if they occured in-between our weather recording intervals... More about our weather records

Advertising

Steyr weather history for previous 24 hours

 ConditionsComfort  
Time TempWeatherWind HumidityBarometerVisibility
1:00 PM
Nov 23
40 °FChilly.6 mph95%30.32 "HgN/A
12:00 PM40 °FChilly.5 mph95%30.32 "HgN/A
11:00 AM39 °FChilly.3 mph96%30.34 "HgN/A
10:00 AM38 °FFog.3 mph97%30.34 "Hg1 mi
9:00 AM38 °FChilly.3 mph97%30.33 "HgN/A
8:00 AM38 °FChilly.3 mph97%30.33 "HgN/A
7:00 AM38 °FFog.5 mph98%30.32 "Hg1 mi
6:00 AM37 °FChilly.5 mph97%30.32 "HgN/A
5:00 AM37 °FChilly.5 mph98%30.32 "HgN/A
4:00 AM37 °FChilly.5 mph97%30.32 "HgN/A
3:00 AM38 °FChilly.2 mph95%30.32 "HgN/A
2:00 AM37 °FChilly.3 mph95%30.32 "HgN/A
1:00 AM37 °FChilly.2 mph94%30.32 "HgN/A
12:00 AM37 °FChilly.3 mph94%30.32 "HgN/A
11:00 PM
Nov 22
36 °FChilly.1 mph93%30.32 "HgN/A
10:00 PM36 °FChilly.2 mph93%30.32 "HgN/A
9:00 PM36 °FChilly.2 mph93%30.31 "HgN/A
8:00 PM37 °FChilly.3 mph92%30.30 "HgN/A
7:00 PM37 °FFog.3 mph92%30.29 "Hg2 mi
6:00 PM38 °FChilly.6 mph90%30.28 "HgN/A
5:00 PM40 °FChilly.3 mph88%30.27 "HgN/A
4:00 PM42 °FQuite cool.5 mph83%30.27 "HgN/A
3:00 PM43 °FQuite cool.3 mph81%30.26 "HgN/A
2:00 PM43 °FQuite cool.2 mph79%30.26 "HgN/A
Weather by CustomWeather, © 2014

See weather overviewHow to use our weather pages